AirNav   Pilot Hours Calculator
 
 598 users online  

13K Lt. William M. Milliken Airport
Eureka, Kansas, USA

GOING TO EUREKA?


FAA INFORMATION EFFECTIVE 28 FEBRUARY 2019

Location

FAA Identifier: 13K
Lat/Long: 37-51-05.8000N / 096-17-31.3000W
37-51.096667N / 096-17.521667W
37.8516111 / -96.2920278
(estimated)
Elevation: 1208.1 ft. / 368.2 m (surveyed)
Variation: 06E (1985)
From city: 2 miles N of EUREKA, KS
Time zone: UTC -6 (UTC -5 during Daylight Saving Time)
Zip code: 67045

Airport Operations

Airport use: Open to the public
Activation date: 07/1959
Control tower: no
ARTCC: KANSAS CITY CENTER
FSS: WICHITA FLIGHT SERVICE STATION
NOTAMs facility: ICT (NOTAM-D service available)
Attendance: 0800-1700
Wind indicator: lighted, WIND INDICATOR IS FADED.
Segmented circle: yes
Beacon: white-green (lighted land airport)
Operates sunset to sunrise.

Airport Communications

CTAF/UNICOM: 122.8
WX AWOS-3: 120.975 (620-583-2760)
  • APCH/DEP SERVICE PROVIDED BY KANSAS CITY ARTCC ON FREQS 120.2/323.2 (EMPORIA RCAG).

Nearby radio navigation aids

VOR radial/distance  VOR name  Freq  Var
EMPr187/27.4EMPORIA VORTAC112.8008E
CNUr287/35.8CHANUTE VOR/DME109.2005E

 
NDB name  Hdg/Dist  Freq  Var  ID
BOYD220/38.124505EUKL ..- -.- .-..

Airport Services

Fuel available: 100LL MOGAS
Parking: tiedowns
Airframe service: MAJOR
Powerplant service: MAJOR
Bottled oxygen: NONE
Bulk oxygen: NONE

Runway Information

Runway 18/36

Dimensions: 3504 x 60 ft. / 1068 x 18 m
Surface: asphalt, in fair condition
Weight bearing capacity: 
Single wheel: 8.0
Runway edge lights: low intensity
Runway edge markings: NRS ARE FADED DUE TO AGE AND WEATHER.
Gradient: N
RUNWAY 18  RUNWAY 36
Latitude: 37-51.323765N37-50.756317N
Longitude: 096-17.419327W096-17.552978W
Elevation: 1206.4 ft.1195.6 ft.
Gradient: 0.3%0.3% UP
Traffic pattern: leftleft
Runway heading: 185 magnetic, 191 true005 magnetic, 011 true
Markings: numbers only, in poor conditionnumbers only, in poor condition
Visual slope indicator: 2-light PAPI on left (3.00 degrees glide path)2-light PAPI on left (3.00 degrees glide path)
Runway end identifier lights: nono
Touchdown point: yes, no lightsyes, no lights

Runway 8/26

Dimensions: 2146 x 55 ft. / 654 x 17 m
Surface: turf, in fair condition
Runway edge markings: WHITE TIRES MARK RY END.
Gradient: E
RUNWAY 8  RUNWAY 26
Latitude: 37-51.182243N37-51.197352N
Longitude: 096-17.802540W096-17.356937W
Elevation: 1194.6 ft.1208.1 ft.
Gradient: 0.6% UP0.6%
Traffic pattern: leftleft
Runway heading: 081 magnetic, 087 true261 magnetic, 267 true
Runway end identifier lights: nono
Touchdown point: yes, no lightsyes, no lights
Obstructions: 4 ft. fence, marked, 76 ft. from runway, 19:1 slope to clear
DELINEATED WITH WHITE PAINTED TIRES.
23 ft. pline, 502 ft. from runway, 21:1 slope to clear

Airport Ownership and Management from official FAA records

Ownership: Publicly-owned
Owner: CITY OF EUREKA
MEMORIAL HALL
EUREKA, KS 67045
Phone 620-583-6511
Manager: LARRY DUTTON
1667 P ROAD
EUREKA, KS 67045
Phone 620-583-7732

Airport Operational Statistics

Aircraft based on the field: 14
Single engine airplanes: 13
Helicopters: 1
    
Aircraft operations: avg 94/week *
80% local general aviation
20% transient general aviation
* for 12-month period ending 01 September 2017

Additional Remarks

A58-36 GROUND DROPS DOWN ABRUPTLY 85 FT FM END OF RY.
WILDLIFE ON & INVOF ARPT.
RY 18/36 NSTD LIRL; NON-BREAKABLE COUPLINGS & VARIES IN ELEV OVR 14 INCHES. RY 18 THLD LGTS ON GND; RY 36 NSTD THLD LGTS.

Instrument Procedures

NOTE: All procedures below are presented as PDF files. If you need a reader for these files, you should download the free Adobe Reader.

NOT FOR NAVIGATION. Please procure official charts for flight.
FAA instrument procedures published for use from 28 February 2019 at 0901Z to 28 March 2019 at 0900Z.

 
IAPs - Instrument Approach Procedures
RNAV (GPS) RWY 18   download (184KB)
VOR/DME RWY 18   download (191KB)
NOTE: Special Take-Off Minimums/Departure Procedures apply   download (213KB)

Other nearby airports with instrument procedures:

KEQA - El Dorado/Captain Jack Thomas Memorial Airport (25 nm W)
KEMP - Emporia Municipal Airport (29 nm N)
KUKL - Coffey County Airport (38 nm NE)
3AU - Augusta Municipal Airport (39 nm W)
1K1 - Lloyd Stearman Field Airport (39 nm W)
 
Loc | Ops | Rwys | IFR | FBO | Links
Com | Nav | Svcs | Stats | Notes

Kansas City Aviation Department
 
Area around 13K (Lt. William M. Milliken Airport)
 
Road maps at: MapQuest Bing Google
 
Aerial photo
WARNING: Photo may not be current or correct
Aerial photo of 13K (Lt. William M. Milliken Airport)
Photo by David Newcomer
Photo taken 17-Oct-2015
from 4,500 altitude looking southeast.

Do you have a better or more recent aerial photo of Lt. William M. Milliken Airport that you would like to share? If so, please send us your photo.

 
Sectional chart

 
Airport distance calculator
Flying to Lt. William M. Milliken Airport? Find the distance to fly.

From to 13K

Sunrise and sunset
Times for 26-Mar-2019
 Local
(UTC-5)
 Zulu
(UTC)
Morning civil twilight06:5411:54
Sunrise07:2112:21
Sunset19:4100:41
Evening civil twilight20:0801:08

Current date and time
Zulu (UTC)  26-Mar-2019 11:22:15
Local (UTC-5)  26-Mar-2019 06:22:15
 
METAR
KEQA 
25nm W 
261055Z AUTO 00000KT 1/2SM FG BKN003 02/02 A3034 RMK AO2
KEMP 
29nm N 
261053Z AUTO 00000KT 1/2SM FG FEW011 BKN095 02/02 A3034 RMK AO2 SLP280 I1000 T00220022
K3AU 
39nm W 
261055Z AUTO 00000KT 1/4SM FG OVC003 00/00 A3035 RMK AO2
K1K1 
39nm W 
261055Z AUTO 00000KT 1SM BR OVC003 01/01 A3034 RMK AO2 T00100010
KCNU 
40nm E 
261052Z AUTO 00000KT 1/4SM FG VV002 01/01 A3035 RMK AO2 SLP279 T00110011
KK88 
43nm E 
261055Z AUTO 00000KT 2 1/2SM CLR 01/01 A3036 RMK AO1 T00060006
KAAO 
44nm W 
261054Z AUTO 00000KT 1/4SM FG VV003 03/03 A3034 RMK AO2 SLP278 T00330028
KBEC 
45nm W 
261055Z AUTO 00000KT 7SM CLR 04/03 A3034 RMK AO2 T00400030
KEWK 
47nm W 
261056Z AUTO 18006KT 4SM BR CLR 03/03 A3034 RMK AO2 SLP274 T00330028
KIDP 
48nm SE 
261055Z AUTO 35003KT 1 3/4SM -RA BR SCT003 03/02 A3036 RMK AO2 VIS 1/2V5 T00260025
TAF
KCNU 
40nm E 
260720Z 2607/2706 VRB03KT 1SM BR SCT001 TEMPO 2607/2611 1/2SM FG VV001 FM261100 VRB03KT 1SM BR SCT001 TEMPO 2611/2614 1/2SM FG VV001 FM261400 VRB03KT 4SM BR SCT001 FM262000 18006KT P6SM SCT030
KIAB 
48nm W 
261000Z 2610/2716 VRB06KT 4800 BR FEW120 QNH3031INS BECMG 2611/2612 VRB06KT 2400 BR FEW050 QNH3035INS BECMG 2614/2615 18006KT 9999 NSW SKC QNH3022INS BECMG 2705/2706 18009KT 9999 BKN040 WS020/20045KT QNH3018INS BECMG 2709/2710 18012KT 9999 SCT040 BKN060 QNH3017INS BECMG 2711/2712 20015G25KT 9999 BKN050 QNH3013INS TX16/2621Z TN04/2612Z
NOTAMs
Click for the latest NOTAMs
NOTAMs are issued by the DoD/FAA and will open in a separate window not controlled by AirNav.

 

 
 

FBO, Fuel Providers, and Aircraft Ground Support

  
 Business Name 
 
 Contact 
 
 Services / Description 
 
Fuel Prices
 
Comments
  
Captain D Aviation 620-583-7732
no information available

If you are affiliated with Captain D Aviation and would like to show here your services, contact info, web link, logo, and more, click here
100LL Mogas
FS $4.69 $3.31 
 Updated 20-Mar-2019
 
   write
FS=Full service
Update Fuel Prices
 

Would you like to see your business listed on this page?

 If your business provides an interesting product or service to pilots, flight crews, aircraft, or users of the Lt. William M. Milliken Airport, you should consider listing it here.  To start the listing process, click on the button below
 
Add a business
 

Other Pages about Lt. William M. Milliken Airport

Update a link
 
Copyright © AirNav, LLC. All rights reserved. Privacy Policy  Contact